| time (UTC) | temp F | wind direction | speed MPH | gust MPH | rain 1hr in | rain 24hr in | rain mn in | humidity % | barometer mb |
| 20260508043104 | 50 | 8 | 0.0 | 0.0 | 0.00 | 0.00 | 0.00 | 55 | 1012.3 |
| 20260508041559 | 50 | 33 | 0.0 | 0.0 | 0.00 | 0.00 | 0.00 | 55 | 1012.2 |
| 20260508040056 | 50 | 13 | 0.0 | 0.0 | 0.00 | 0.00 | 0.00 | 54 | 1012.1 |
| 20260508034600 | 50 | 31 | 0.0 | 0.0 | 0.00 | 0.00 | 0.00 | 54 | 1012.1 |
| 20260508033056 | 50 | 29 | 0.0 | 0.0 | 0.00 | 0.00 | 0.00 | 55 | 1012.2 |
| 20260508031557 | 50 | 313 | 0.0 | 5.0 | 0.00 | 0.00 | 0.00 | 55 | 1012.3 |
| 20260508030055 | 49 | 280 | 0.0 | 2.0 | 0.00 | 0.00 | 0.00 | 56 | 1012.0 |
| 20260508024552 | 48 | 12 | 0.0 | 2.0 | 0.00 | 0.00 | 0.00 | 57 | 1011.8 |
| 20260508023052 | 49 | 18 | 0.0 | 7.0 | 0.00 | 0.00 | 0.00 | 56 | 1011.9 |
| 20260508021553 | 49 | 359 | 4.0 | 13.0 | 0.00 | 0.00 | 0.00 | 56 | 1011.8 |
| 20260508020048 | 49 | 16 | 0.0 | 3.0 | 0.00 | 0.00 | 0.00 | 53 | 1012.2 |
| 20260508014553 | 49 | 52 | 0.0 | 3.0 | 0.00 | 0.00 | 0.00 | 54 | 1012.2 |
| 20260508013046 | 49 | 16 | 0.0 | 5.0 | 0.00 | 0.00 | 0.00 | 53 | 1012.6 |
| 20260508011546 | 49 | 27 | 0.0 | 3.0 | 0.00 | 0.00 | 0.00 | 52 | 1012.5 |
| 20260508010041 | 50 | 8 | 0.0 | 0.0 | 0.00 | 0.00 | 0.00 | 51 | 1012.7 |
| 20260508004539 | 50 | 19 | 0.0 | 0.0 | 0.00 | 0.00 | 0.00 | 51 | 1012.8 |
| 20260508003054 | 50 | 14 | 0.0 | 0.0 | 0.00 | 0.00 | 0.00 | 51 | 1013.1 |
| 20260508001535 | 50 | 38 | 0.0 | 1.0 | 0.00 | 0.00 | 0.00 | 50 | 1013.3 |
| 20260508000037 | 51 | 22 | 0.0 | 0.0 | 0.00 | 0.00 | 0.00 | 49 | 1013.4 |
| 20260507234532 | 51 | 11 | 0.0 | 3.0 | 0.00 | 0.00 | 0.00 | 49 | 1013.5 |
| 20260507233035 | 51 | 359 | 0.0 | 0.0 | 0.00 | 0.00 | 0.00 | 49 | 1013.6 |
| 20260507231531 | 51 | 4 | 0.0 | 0.0 | 0.00 | 0.00 | 0.00 | 49 | 1014.0 |
| 20260507230029 | 51 | 8 | 0.0 | 0.0 | 0.00 | 0.00 | 0.00 | 50 | 1014.0 |
| 20260507224527 | 51 | 13 | 0.0 | 0.0 | 0.00 | 0.00 | 0.00 | 49 | 1014.0 |
| 20260507223025 | 51 | 10 | 0.0 | 0.0 | 0.00 | 0.00 | 0.00 | 48 | 1013.9 |
| 20260507221526 | 51 | 22 | 0.0 | 0.0 | 0.00 | 0.00 | 0.00 | 48 | 1014.1 |
| 20260507220021 | 52 | 23 | 0.0 | 1.0 | 0.00 | 0.00 | 0.00 | 49 | 1014.0 |
| 20260507214520 | 52 | 39 | 0.0 | 1.0 | 0.00 | 0.00 | 0.00 | 49 | 1014.0 |
| 20260507213018 | 52 | 79 | 0.0 | 0.0 | 0.00 | 0.00 | 0.00 | 47 | 1013.9 |
| 20260507211517 | 53 | 80 | 0.0 | 0.0 | 0.00 | 0.00 | 0.00 | 46 | 1013.7 |
| 20260507210015 | 54 | 43 | 0.0 | 0.0 | 0.00 | 0.00 | 0.00 | 45 | 1013.6 |
| 20260507204514 | 54 | 44 | 0.0 | 0.0 | 0.00 | 0.00 | 0.00 | 44 | 1013.4 |
| 20260507203015 | 55 | 25 | 0.0 | 0.0 | 0.00 | 0.00 | 0.00 | 43 | 1013.1 |
| 20260507201511 | 55 | 25 | 0.0 | 0.0 | 0.00 | 0.00 | 0.00 | 41 | 1012.8 |
| 20260507200009 | 55 | 23 | 0.0 | 0.0 | 0.00 | 0.00 | 0.00 | 40 | 1012.7 |
| 20260507194508 | 56 | 12 | 0.0 | 0.0 | 0.00 | 0.00 | 0.00 | 40 | 1012.5 |
| 20260507193007 | 56 | 19 | 0.0 | 0.0 | 0.00 | 0.00 | 0.00 | 39 | 1012.2 |
| 20260507191509 | 57 | 48 | 0.0 | 0.0 | 0.00 | 0.00 | 0.00 | 37 | 1012.0 |
| 20260507190006 | 58 | 38 | 0.0 | 0.0 | 0.00 | 0.00 | 0.00 | 35 | 1011.8 |
| 20260507184511 | 58 | 25 | 0.0 | 2.0 | 0.00 | 0.00 | 0.00 | 34 | 1011.5 |
| 20260507183005 | 59 | 340 | 0.0 | 1.0 | 0.00 | 0.00 | 0.00 | 33 | 1011.3 |
| 20260507181506 | 59 | 29 | 0.0 | 0.0 | 0.00 | 0.00 | 0.00 | 33 | 1011.2 |
| 20260507180008 | 59 | 70 | 0.0 | 0.0 | 0.00 | 0.00 | 0.00 | 33 | 1011.3 |
| 20260507174504 | 60 | 94 | 0.0 | 1.0 | 0.00 | 0.00 | 0.00 | 32 | 1011.1 |
| 20260507173004 | 61 | 66 | 0.0 | 6.0 | 0.00 | 0.00 | 0.00 | 29 | 1011.1 |
| 20260507171505 | 60 | 61 | 0.0 | 7.0 | 0.00 | 0.00 | 0.00 | 31 | 1011.1 |
| 20260507170002 | 60 | 95 | 0.0 | 9.0 | 0.00 | 0.00 | 0.00 | 30 | 1011.2 |
| 20260507164502 | 60 | 104 | 0.0 | 11.0 | 0.00 | 0.00 | 0.00 | 31 | 1011.1 |
| 20260507163001 | 61 | 88 | 0.0 | 5.0 | 0.00 | 0.00 | 0.00 | 33 | 1011.1 |
| 20260507161603 | 60 | 33 | 0.0 | 4.0 | 0.00 | 0.00 | 0.00 | 34 | 1011.3 |
| 20260507160109 | 60 | 74 | 0.0 | 8.0 | 0.00 | 0.00 | 0.00 | 34 | 1011.3 |
| 20260507154559 | 60 | 23 | 0.0 | 9.0 | 0.00 | 0.00 | 0.00 | 35 | 1011.1 |
| 20260507153101 | 60 | 73 | 0.0 | 11.0 | 0.00 | 0.00 | 0.00 | 34 | 1011.2 |
| 20260507151559 | 59 | 66 | 2.0 | 18.0 | 0.00 | 0.00 | 0.00 | 35 | 1011.1 |
| 20260507150057 | 59 | 121 | 2.0 | 14.0 | 0.00 | 0.00 | 0.00 | 37 | 1011.2 |
| 20260507144557 | 60 | 35 | 0.0 | 5.0 | 0.00 | 0.00 | 0.00 | 38 | 1011.2 |
| 20260507143055 | 59 | 60 | 1.0 | 11.0 | 0.00 | 0.00 | 0.00 | 42 | 1011.4 |
| 20260507141556 | 59 | 359 | 0.0 | 13.0 | 0.00 | 0.00 | 0.00 | 39 | 1011.4 |
| 20260507140106 | 60 | 60 | 0.0 | 6.0 | 0.00 | 0.00 | 0.00 | 36 | 1011.0 |
| 20260507134552 | 63 | 78 | 0.0 | 0.0 | 0.00 | 0.00 | 0.00 | 28 | 1010.9 |
| 20260507133051 | 63 | 168 | 0.0 | 0.0 | 0.00 | 0.00 | 0.00 | 26 | 1010.9 |
| 20260507131550 | 64 | 209 | 0.0 | 1.0 | 0.00 | 0.00 | 0.00 | 24 | 1010.9 |
| 20260507130049 | 64 | 224 | 0.0 | 2.0 | 0.00 | 0.00 | 0.00 | 23 | 1010.7 |
| 20260507124549 | 65 | 127 | 0.0 | 6.0 | 0.00 | 0.00 | 0.00 | 21 | 1010.7 |
| 20260507123048 | 66 | 338 | 0.0 | 0.0 | 0.00 | 0.00 | 0.00 | 24 | 1010.8 |
| 20260507121546 | 64 | 324 | 0.0 | 0.0 | 0.00 | 0.00 | 0.00 | 24 | 1010.7 |
| 20260507120043 | 65 | 90 | 0.0 | 1.0 | 0.00 | 0.00 | 0.00 | 23 | 1010.9 |
| 20260507114540 | 64 | 50 | 0.0 | 3.0 | 0.00 | 0.00 | 0.00 | 25 | 1011.2 |
| 20260507113040 | 63 | 69 | 0.0 | 2.0 | 0.00 | 0.00 | 0.00 | 29 | 1011.5 |
| 20260507111539 | 63 | 86 | 0.0 | 7.0 | 0.00 | 0.00 | 0.00 | 27 | 1011.7 |
| 20260507110033 | 63 | 87 | 0.0 | 1.0 | 0.00 | 0.00 | 0.00 | 30 | 1011.8 |
| 20260507104534 | 62 | 120 | 0.0 | 4.0 | 0.00 | 0.00 | 0.00 | 34 | 1012.0 |
| 20260507103029 | 60 | 78 | 0.0 | 3.0 | 0.00 | 0.00 | 0.00 | 38 | 1012.2 |
| 20260507101549 | 61 | 53 | 0.0 | 7.0 | 0.00 | 0.00 | 0.00 | 35 | 1012.3 |
| 20260507100033 | 61 | 45 | 0.0 | 6.0 | 0.00 | 0.00 | 0.00 | 38 | 1012.3 |
| 20260507094525 | 60 | 22 | 0.0 | 3.0 | 0.00 | 0.00 | 0.00 | 39 | 1012.3 |
| 20260507093030 | 59 | 62 | 0.0 | 1.0 | 0.00 | 0.00 | 0.00 | 39 | 1012.3 |
| 20260507091546 | 60 | 90 | 0.0 | 5.0 | 0.00 | 0.00 | 0.00 | 38 | 1012.2 |
| 20260507090023 | 60 | 62 | 0.0 | 0.0 | 0.00 | 0.00 | 0.00 | 38 | 1012.3 |
| 20260507084525 | 59 | 64 | 0.0 | 6.0 | 0.00 | 0.00 | 0.00 | 39 | 1012.3 |
| 20260507083021 | 59 | 65 | 0.0 | 6.0 | 0.00 | 0.00 | 0.00 | 40 | 1012.3 |
| 20260507081518 | 59 | 57 | 0.0 | 7.0 | 0.00 | 0.00 | 0.00 | 40 | 1012.3 |
| 20260507080012 | 57 | 69 | 0.0 | 3.0 | 0.00 | 0.00 | 0.00 | 1012.2 | |
| 20260507074511 | 56 | 130 | 0.0 | 5.0 | 0.00 | 0.00 | 0.00 | 45 | 1012.3 |
| 20260507073008 | 55 | 90 | 0.0 | 2.0 | 0.00 | 0.00 | 0.00 | 45 | 1012.3 |
| 20260507071507 | 55 | 36 | 0.0 | 7.0 | 0.00 | 0.00 | 0.00 | 46 | 1012.2 |
| 20260507070002 | 55 | 99 | 0.0 | 5.0 | 0.00 | 0.00 | 0.00 | 46 | 1012.2 |
| 20260507064600 | 54 | 87 | 0.0 | 1.0 | 0.00 | 0.00 | 0.00 | 47 | 1012.2 |
| 20260507063101 | 54 | 83 | 0.0 | 3.0 | 0.00 | 0.00 | 0.00 | 46 | 1012.2 |
| 20260507061554 | 54 | 89 | 0.0 | 0.0 | 0.00 | 0.00 | 0.00 | 47 | 1012.2 |
| 20260507060052 | 54 | 84 | 0.0 | 0.0 | 0.00 | 0.00 | 0.00 | 47 | 1012.1 |
| 20260507054554 | 54 | 42 | 0.0 | 0.0 | 0.00 | 0.00 | 0.00 | 47 | 1012.0 |
| 20260507053048 | 54 | 50 | 0.0 | 0.0 | 0.00 | 0.00 | 0.00 | 46 | 1011.9 |
| 20260507051548 | 54 | 76 | 0.0 | 0.0 | 0.00 | 0.00 | 0.00 | 46 | 1011.8 |
| 20260507050046 | 54 | 87 | 0.0 | 3.0 | 0.00 | 0.00 | 0.00 | 45 | 1011.8 |
| 20260507044548 | 54 | 67 | 0.0 | 1.0 | 0.00 | 0.00 | 0.00 | 45 | 1011.8 |